sat.trackr.live / text

‹ back to catalog

ONEWEB-0200

NORAD 48244 · 2021-031AL

PAYLOAD ACTIVE UNKNOWN

§ Identity

Operator
Country
UK
Launch date
2021-04-25
Launch site
VOSTO
Launch vehicle
Mass (kg)
RCS (m²)

Purposes: comms

External: N2YO · Heavens-Above · Gunter

§ Orbital elements

Epoch: 2026-09-14T18:58:20.271360Z

Period
109.55 min
Inclination
87.8901°
Eccentricity
0.0001644
Mean motion
13.14503673 rev/d
Perigee alt
1,204.5 km
Apogee alt
1,207.0 km
Semi-major
7,583.9 km
B*
4.5312e-4
RAAN
271.8314°
Arg perigee
97.2621°
Mean anomaly
262.8696°
Rev number
26,000

§ Raw data

ONEWEB-02001 48244U 21031AL  26257.79051240  .00000181  00000+0  45312-3 0  99962 48244  87.8901 271.8314 0001644  97.2621 262.8696 13.14503673260005

JSON: /api/v1/satellites/48244 · /tle

For live sub-satellite position, see the globe view (requires WebGL).

§ Visibility from observer

Set your observer location to see the next 7 days of passes ≥ 10°. The values pass through the URL so the page stays shareable.

No JS? Fill the form by hand. The geolocation button needs JavaScript.